Ahmedabad, India

4:26 AM IST on September 21, 2017 (GMT +0530)
Ahmedabad

Weather History for VAAH - December, 2013

Change the Weather History Date:

Thursday, December 26, 2013

  Actual Average Record
Temperature  
Mean Temperature 70 °F -  
Max Temperature 80 °F 78 °F 86 °F (2006)
Min Temperature 59 °F 53 °F 50 °F (2005)
Cooling Degree Days 4    
Growing Degree Days 20 (Base 50)    
Moisture  
Dew Point 56 °F    
Average Humidity 63    
Maximum Humidity 78    
Minimum Humidity 41    
Precipitation  
Precipitation 0.00 in 0.00 in - ()
Sea Level Pressure  
Sea Level Pressure 30.01 in    
Wind  
Wind Speed 3 mph ()    
Max Wind Speed 9 mph    
Max Gust Speed -    
Visibility 1.7 miles    
Events      
Averages and records for this station are not official NWS values.
T = Trace of Precipitation, MM = Missing Value Source: Averaged Metar Reports

Daily Weather History Graph

Daily Weather History Graph

Search for Another Location

Airport or City:

Trip Planner

Search our weather history database for the weather conditions in past years. The results will help you decide how hot, cold, wet, or windy it might be!

Date:

Astronomy

Dec. 26, 2013 Rise Set
Actual Time 7:18 AM IST 6:01 PM IST
Civil Twilight 6:53 AM IST 6:26 PM IST
Nautical Twilight 6:25 AM IST 6:54 PM IST
Astronomical Twilight 5:57 AM IST 7:22 PM IST
Moon 12:52 AM IST (12/26) 12:53 PM IST (12/26)
Length of Visible Light 11h 32m
Length of Day
10h 43m
Last Quarter, 43% of the Moon is Illuminated
Dec 26
Last Quarter
Jan 1
New
Jan 8
First Quarter
Jan 16
Full
Jan 24
Last Quarter

Hourly Weather History & Observations

Time (IST) Temp. Heat Index Dew Point Humidity Pressure Visibility Wind Dir Wind Speed Gust Speed Precip Events Conditions
12:10 AM 62.6 °F - 51.8 °F 68% 30.06 in 1.9 mi Calm Calm - N/A   Haze
12:40 AM 60.8 °F - 51.8 °F 72% 30.04 in 1.9 mi Calm Calm - N/A   Haze
1:10 AM 60.8 °F - 51.8 °F 72% 30.04 in 1.9 mi Calm Calm - N/A   Haze
1:40 AM 60.8 °F - 51.8 °F 72% 30.04 in 1.9 mi Calm Calm - N/A   Haze
2:10 AM 59.0 °F - 51.8 °F 77% 30.04 in 1.9 mi Calm Calm - N/A   Haze
2:30 AM 62 °F - 55 °F 73% 30.04 in 1 mi North 3.5 mph - -   Haze
2:40 AM 59.0 °F - 51.8 °F 77% 30.04 in 1.9 mi Calm Calm - N/A   Haze
3:10 AM 60.8 °F - 53.6 °F 77% 30.01 in 1.9 mi NE 3.5 mph - N/A   Haze
3:40 AM - - - N/A% 30.01 in 1.9 mi NE 5.8 mph - N/A   Haze
4:10 AM 60.8 °F - 53.6 °F 77% 30.01 in 1.9 mi NE 5.8 mph - N/A   Haze
4:40 AM 60.8 °F - 53.6 °F 77% 30.01 in 1.9 mi NE 5.8 mph - N/A   Haze
5:10 AM 60.8 °F - 53.6 °F 77% 30.01 in 1.9 mi NNE 5.8 mph - N/A   Haze
5:30 AM 64 °F - 55 °F 66% 30.02 in 1 mi NE 5.8 mph - -   Haze
5:40 AM 62.6 °F - 53.6 °F 72% 29.98 in 1.9 mi NE 6.9 mph - N/A   Haze
7:10 AM 62.6 °F - 51.8 °F 68% 30.04 in 0.9 mi ENE 5.8 mph - N/A   Mist
7:40 AM 62.6 °F - 51.8 °F 68% 30.04 in 0.9 mi NE 5.8 mph - N/A   Mist
8:10 AM 64.4 °F - 51.8 °F 64% 30.06 in 0.9 mi ENE 5.8 mph - N/A   Scattered Clouds
8:30 AM 65 °F - 54 °F 59% 30.07 in 1 mi NE 5.8 mph - -   Haze
8:40 AM 64.4 °F - 51.8 °F 64% 30.06 in 0.9 mi ENE 6.9 mph - N/A   Scattered Clouds
9:10 AM 66.2 °F - 53.6 °F 64% 30.06 in 0.9 mi ENE 6.9 mph - N/A   Scattered Clouds
9:40 AM 68.0 °F - 53.6 °F 60% 30.09 in 0.9 mi ENE 9.2 mph - N/A   Scattered Clouds
10:40 AM 71.6 °F - 53.6 °F 53% 30.09 in 1.2 mi ENE 5.8 mph - N/A   Haze
11:10 AM 73.4 °F - 55.4 °F 53% 30.06 in 1.2 mi ENE 5.8 mph - N/A   Haze
11:30 AM 73 °F - 56 °F 45% 30.07 in 2 mi ESE 4.6 mph - -   Mostly Cloudy
11:40 AM 73.4 °F - 55.4 °F 53% 30.06 in 1.2 mi East 6.9 mph - N/A   Haze
12:10 PM 75.2 °F - 57.2 °F 53% 30.04 in 1.2 mi East 6.9 mph - N/A   Haze
12:40 PM 75.2 °F - 57.2 °F 53% 30.01 in 1.6 mi East 5.8 mph - N/A   Haze
1:10 PM 77.0 °F - 57.2 °F 50% 30.01 in 1.9 mi ENE 5.8 mph - N/A   Smoke
1:40 PM 78.8 °F - 59.0 °F 51% 29.98 in 1.9 mi NNE 4.6 mph - N/A   Smoke
2:10 PM 80.6 °F 81.1 °F 59.0 °F 48% 29.95 in 1.9 mi NNE 4.6 mph - N/A   Smoke
2:30 PM 79 °F - 60 °F 41% 29.96 in 2 mi NE 3.5 mph - -   Clear
2:40 PM 78.8 °F - 59.0 °F 51% 29.95 in 1.9 mi NNE 3.5 mph - N/A   Smoke
3:10 PM 80.6 °F 81.1 °F 59.0 °F 48% 29.95 in 2.2 mi NE 4.6 mph - N/A   Smoke
3:40 PM 80.6 °F 81.1 °F 59.0 °F 48% 29.95 in 2.2 mi NNE 4.6 mph - N/A   Smoke
4:10 PM 80.6 °F 81.1 °F 59.0 °F 48% 29.92 in 2.2 mi NNE 4.6 mph - N/A   Smoke
4:40 PM 80.6 °F 81.1 °F 59.0 °F 48% 29.92 in 2.2 mi NNE 4.6 mph - N/A   Smoke
5:10 PM 78.8 °F - 59.0 °F 51% 29.92 in 2.2 mi NNE 4.6 mph - N/A   Smoke
5:30 PM 78 °F - 61 °F 45% 29.93 in 2 mi North 4.6 mph - -   Clear
5:40 PM 77.0 °F - 59.0 °F 54% 29.95 in 1.9 mi NNE 3.5 mph - N/A   Smoke
6:10 PM 75.2 °F - 57.2 °F 53% 29.95 in 1.9 mi Variable 2.3 mph - N/A   Smoke
6:40 PM 73.4 °F - 59.0 °F 61% 29.95 in 1.9 mi Calm Calm - N/A   Smoke
7:10 PM - - - N/A% - 1.9 mi Calm Calm - N/A   Smoke
7:40 PM 71.6 °F - 59.0 °F 64% 29.98 in 1.9 mi Calm Calm - N/A   Smoke
8:10 PM 69.8 °F - 59.0 °F 68% 29.98 in 1.9 mi Calm Calm - N/A   Smoke
8:30 PM 69 °F - 62 °F 72% 29.99 in 2 mi Calm Calm - -   Haze
8:40 PM 68.0 °F - 59.0 °F 73% 30.01 in 1.9 mi NNW 3.5 mph - N/A   Haze
9:10 PM 68.0 °F - 60.8 °F 78% 30.01 in 1.9 mi NNW 2.3 mph - N/A   Haze
9:40 PM 68.0 °F - 59.0 °F 73% 30.01 in 1.9 mi NNW 3.5 mph - N/A   Haze
10:10 PM 68.0 °F - 59.0 °F 73% 30.01 in 1.9 mi NNE 2.3 mph - N/A   Haze
10:40 PM 66.2 °F - 59.0 °F 78% 30.01 in 1.9 mi North 2.3 mph - N/A   Haze
11:10 PM 64.4 °F - 57.2 °F 77% 30.01 in 1.9 mi North 2.3 mph - N/A   Haze
11:30 PM 67 °F - 60 °F 70% 30.01 in 1 mi North 3.5 mph - -   Haze
11:40 PM 66.2 °F - 57.2 °F 73% 30.01 in 1.9 mi North 3.5 mph - N/A   Haze